Kosmos-648

operational
NORAD ID: 7272 Int'l Des: 1974-024 Owner: GUKOSR Country: SU
LEOCIRCULAR
追跡 地上

Kosmos-648について

説明を読み込み中...

リアルタイム位置

3D地球を読み込み中...

次回通過

高度履歴

Altitude vs Time

uPlot chart will show altitude changes over time

軌道要素

1 07272U 74024H 26073.40786152 .00000004 00000-0 13022-3 0 9991
2 07272 74.0166 57.9772 0032322 109.6869 323.2504 12.50375001368552
Epoch: Mar 14, 2026 • Age: 13 hours

現在のステータス

高度 1454.3 km
速度 7.15 km/s
衛星直下点 62.69°N, 69.85°W
タイプ other

大規模コンステレーション

Loading constellations...